Theta_e
310 309 309 310 309 308 311 309 311 314 312 311 309 308 306 305 304 300 296 293 291 289 287 286 285 284 283 282 280 279 279 279 279 279 279 280 280 280 280 280 280 281 281 281
309 306 306 309 309 308 310 309 311 311 310 308 306 304 304 303 302 299 296 294 290 288 287 286 285 283 282 282 281 280 279 278 278 278 278 279 279 279 279 279 279 279 280 279
312 308 308 312 314 311 310 309 308 308 308 306 305 305 305 303 300 298 296 293 289 288 286 285 284 283 282 281 280 280 279 278 277 277 277 278 278 278 278 278 278 278 278 279
313 308 312 315 305 306 308 307 306 306 305 305 305 303 300 300 300 298 295 291 288 287 286 284 283 282 282 281 281 280 280 279 278 277 277 278 278 278 278 278 277 277 277 277
312 311 309 308 307 306 307 307 307 307 306 305 299 299 299 297 298 297 293 289 287 285 285 284 283 282 281 281 280 280 280 279 279 278 278 278 278 278 278 278 277 277 276 276
310 310 309 308 305 306 307 309 306 306 307 304 300 308 309 296 296 292 287 285 284 284 284 282 282 281 280 280 280 279 279 279 279 278 278 278 278 278 278 278 278 277 276 275
311 311 310 308 306 306 308 309 306 306 306 303 303 304 297 295 292 287 284 283 283 282 282 281 280 280 278 278 277 277 277 277 278 278 278 278 278 278 278 278 278 278 278 277
309 313 310 307 306 306 308 306 306 306 305 302 299 293 294 292 288 285 283 282 282 281 280 279 279 279 278 277 276 276 276 276 277 277 278 278 278 278 278 279 278 278 278 278
309 309 308 307 307 307 306 307 306 306 303 300 294 292 290 289 287 285 283 282 281 280 279 279 279 279 278 277 276 276 276 276 276 276 278 278 279 279 279 278 279 279 278 278
307 307 307 306 306 305 305 306 304 303 302 298 294 291 289 289 288 285 284 282 281 280 279 279 279 279 278 277 276 277 277 277 277 277 278 278 278 279 279 279 278 278 278 278
307 309 307 306 306 306 305 303 302 300 300 298 295 291 290 289 288 285 283 283 282 282 281 280 279 278 277 277 277 277 277 277 277 277 277 277 277 277 277 276 276 277 277 276
310 307 308 308 304 301 303 303 301 300 297 296 295 292 290 290 287 285 283 283 283 283 282 280 280 279 278 278 278 278 278 278 278 278 277 277 277 276 274 274 274 274 274 274
309 306 306 301 299 298 301 301 300 299 298 297 294 293 291 290 287 285 283 283 283 283 282 281 280 280 279 278 278 278 278 277 277 277 277 277 277 277 277 274 272 272 272 272
304 302 302 300 303 298 298 297 296 297 296 295 294 292 290 289 286 284 283 282 282 282 281 281 280 279 278 278 277 277 277 276 277 277 277 277 276 276 276 276 276 275 271 270
302 300 301 299 297 297 296 296 296 296 295 293 292 291 289 288 285 284 282 282 281 281 280 280 279 278 277 277 276 276 276 277 277 276 276 275 275 275 275 275 274 274 273 272
300 298 297 298 298 297 296 296 296 296 294 292 290 289 288 286 285 283 282 281 280 280 279 279 278 277 277 276 276 276 276 275 276 276 275 275 275 274 274 274 273 273 271 270
299 299 298 299 298 297 296 295 295 294 293 291 289 288 286 285 283 282 281 280 280 279 279 278 277 277 276 276 277 277 276 275 275 275 275 274 274 273 273 272 272 271 270 266
299 298 299 298 298 296 294 293 292 291 290 288 287 285 285 283 283 282 280 279 279 279 278 277 276 276 276 276 277 277 276 275 275 275 274 273 273 272 271 271 270 270 269 268
297 297 296 295 295 294 293 292 290 289 287 286 284 283 283 282 281 279 278 278 278 278 278 276 276 276 276 276 276 276 276 275 274 273 273 271 271 270 270 270 269 268 268 267
295 294 294 293 292 292 290 289 286 285 284 283 283 282 282 280 278 277 277 278 278 278 276 276 276 276 276 275 275 276 275 275 274 273 272 271 271 270 269 266 267 267 267 266
294 292 291 290 290 288 288 285 284 284 283 282 282 282 280 278 277 277 277 277 277 276 275 276 276 276 276 276 275 275 275 274 273 272 271 270 269 269 268 267 266 266 265 264
291 290 290 289 289 287 285 284 284 283 282 281 281 280 278 278 277 277 277 278 276 275 275 275 276 276 275 274 275 275 274 273 272 271 270 269 269 268 267 266 265 264 264 263
290 290 289 288 288 287 284 284 283 282 282 281 280 279 280 279 278 278 277 276 275 275 276 276 275 274 274 274 274 273 273 271 271 270 268 267 267 266 265 265 263 262 262 261
288 288 287 285 285 285 285 283 283 282 281 281 280 280 280 279 278 278 278 275 275 275 276 276 274 274 274 273 273 272 270 270 268 267 266 265 265 263 263 262 262 261 260 259
287 285 285 285 286 286 285 283 283 282 281 281 280 279 280 280 280 278 277 275 274 275 275 273 274 273 273 272 271 270 269 268 267 266 265 264 263 262 262 261 260 260 259 258
285 287 286 286 287 286 285 283 284 283 282 282 280 280 279 278 278 277 276 275 275 275 274 272 272 272 271 270 269 268 267 265 265 264 263 263 262 261 260 259 259 258 258 257
285 285 285 285 284 284 284 284 284 283 282 282 281 279 279 279 278 277 276 275 275 274 273 272 271 271 270 268 267 266 266 264 263 263 262 261 261 260 259 259 258 258 257 256
Wind_Speed
7 8 9 14 13 13 14 19 15 21 23 19 19 19 16 9 10 11 11 10 9 7 6 5 3 2 5 6 8 9 10 12 14 13 14 16 18 20 22 25 27 28 30 32
2 6 7 11 15 16 14 19 19 21 30 19 14 4 4 4 11 13 12 11 10 10 9 6 4 4 5 6 7 7 11 12 12 13 15 17 18 20 22 24 27 28 31 33
8 4 5 12 15 17 18 19 17 18 20 13 10 10 8 6 11 13 14 13 12 10 9 7 6 6 6 5 5 6 11 11 12 13 15 17 18 19 22 23 25 30 32 34
3 4 6 1 2 5 13 14 15 20 18 16 11 4 6 5 10 13 14 14 12 13 12 9 7 7 7 6 6 7 10 10 11 13 14 15 17 19 19 21 24 27 30 31
5 9 13 15 14 9 9 14 12 15 15 1 1 5 7 6 9 11 12 15 13 14 13 11 9 8 8 7 7 7 9 10 10 11 13 14 17 18 17 19 22 25 27 30
6 6 10 3 6 5 3 10 3 4 4 7 7 5 2 11 11 13 14 16 17 15 13 12 9 9 9 8 9 9 8 8 10 10 12 13 14 16 16 17 20 22 25 28
12 7 9 5 8 8 2 3 6 6 5 10 7 2 4 13 12 16 17 18 16 15 13 12 11 11 11 10 9 8 8 9 10 10 12 13 13 14 15 16 17 18 21 24
9 7 12 11 12 7 2 4 5 7 8 7 5 6 10 11 13 18 19 18 15 15 13 12 11 12 12 10 10 9 10 11 11 10 10 11 14 15 14 13 15 17 18 20
8 8 3 16 8 13 4 6 7 8 8 9 9 10 13 13 15 18 20 18 16 15 15 12 10 10 12 11 9 8 9 11 11 10 11 12 12 13 13 14 14 16 17 18
5 8 13 11 14 8 10 11 6 6 8 13 12 12 14 14 15 19 20 19 18 16 14 13 11 10 11 12 11 10 10 9 8 9 10 10 13 14 15 14 15 16 17 16
14 10 11 11 13 13 12 10 7 6 9 12 12 14 15 15 16 20 21 21 20 19 16 15 14 12 12 12 11 10 9 9 8 8 9 12 14 14 14 17 17 14 14 16
9 9 10 7 3 3 9 11 11 9 9 10 13 14 17 15 21 22 22 22 21 19 18 17 16 15 13 12 11 10 9 7 6 7 7 7 9 12 14 14 14 15 16 14
16 4 4 3 2 2 4 6 8 9 8 11 14 16 20 18 22 22 23 23 21 20 19 19 17 15 14 13 11 9 8 8 7 6 6 6 5 5 6 7 11 12 12 14
7 6 4 6 3 5 4 4 7 7 8 10 13 16 18 19 20 23 23 23 21 20 20 19 17 15 14 13 11 10 9 8 7 6 5 5 5 5 5 5 4 5 9 11
9 7 2 4 5 5 5 6 7 7 7 9 12 15 19 19 21 22 22 22 21 20 20 19 18 16 15 14 13 12 10 8 7 6 5 5 4 4 4 4 4 4 5 7
9 7 6 7 6 7 7 7 8 7 7 9 12 15 17 18 21 22 23 23 25 23 22 20 19 17 16 15 13 10 8 9 7 6 5 4 3 3 3 3 3 4 5 7
11 7 8 8 8 8 8 6 5 6 7 9 11 14 17 19 20 21 22 22 19 20 21 20 19 19 17 15 13 10 9 8 6 5 4 3 3 3 2 2 3 4 4 5
3 2 6 3 6 7 6 6 6 7 7 10 12 15 17 20 20 20 21 20 17 17 17 18 20 22 18 15 12 10 9 7 6 5 4 3 3 3 2 2 2 3 3 5
5 5 5 3 3 5 5 6 7 8 10 13 15 17 17 17 17 19 20 19 18 19 18 19 22 20 17 15 13 10 8 8 6 5 3 3 2 2 2 1 1 2 3 4
7 7 6 6 5 5 6 7 10 10 11 13 13 14 15 15 19 19 19 17 15 14 19 21 21 17 15 15 12 9 9 7 6 5 4 3 2 2 1 1 1 2 3 4
6 6 8 8 7 6 6 9 11 11 11 13 14 14 15 16 17 19 18 14 13 14 21 23 18 16 15 13 12 9 8 7 6 5 4 3 3 2 1 1 1 2 3 4
6 7 7 7 7 7 6 8 8 11 11 12 11 15 17 16 17 15 11 10 14 19 19 19 16 15 14 15 11 9 8 7 6 5 4 4 3 3 2 1 1 2 3 3
9 7 8 7 7 7 8 7 8 10 11 13 14 16 17 17 17 16 11 12 16 21 19 17 16 18 17 12 11 9 8 7 5 5 5 4 4 3 2 2 1 2 2 3
7 6 7 6 7 8 7 7 7 8 9 11 12 15 17 17 13 10 7 17 18 23 17 17 20 19 16 11 10 9 7 6 6 5 5 5 4 3 2 1 2 2 2 4
6 6 6 6 6 6 7 9 9 10 11 10 12 13 12 12 12 15 13 17 22 21 17 19 21 19 12 11 9 8 7 6 6 6 5 5 4 3 2 2 2 2 3 3
6 5 5 5 4 7 8 10 9 11 11 12 12 13 12 12 12 14 15 18 20 18 17 19 18 15 11 10 9 8 7 7 6 5 5 5 4 3 3 3 3 3 4 4
6 5 5 5 5 6 8 9 9 11 11 12 13 13 13 13 14 16 17 19 18 17 16 16 15 13 12 11 9 8 6 6 6 5 5 4 4 3 4 3 3 4 5 6
Wind_Direction
275 271 261 264 246 217 226 244 256 275 272 276 288 300 299 288 216 198 182 178 172 164 150 147 139 99 67 49 36 21 29 30 28 24 23 29 31 33 34 34 35 36 37 39
260 219 233 254 255 246 243 247 258 264 271 283 296 303 272 244 193 196 190 180 169 167 160 145 142 113 83 59 47 32 41 32 29 30 34 36 35 37 38 38 36 37 38 39
252 198 246 264 249 221 245 249 248 260 274 299 287 275 273 223 196 194 188 176 171 163 154 147 136 119 97 80 70 53 49 38 33 36 39 39 38 40 39 37 39 37 35 35
252 171 230 253 178 223 236 256 255 257 273 288 294 307 275 228 191 185 179 171 165 160 153 149 136 116 108 98 87 71 61 44 33 41 43 43 43 42 41 40 41 40 39 38
217 220 282 281 230 218 217 273 268 259 266 294 256 241 225 199 188 175 167 159 150 151 154 148 138 125 116 107 91 79 67 52 39 37 44 45 47 44 44 45 46 46 43 40
198 237 248 71 151 161 187 283 3 246 238 187 177 249 93 171 165 148 142 151 151 149 148 141 135 125 116 110 98 80 69 62 52 49 50 51 52 49 48 50 51 50 49 45
219 237 259 254 160 167 218 327 150 202 192 180 199 318 132 157 156 155 152 149 148 146 146 144 137 129 116 109 101 92 82 74 65 59 59 56 58 55 52 53 52 50 51 46
218 231 252 167 153 214 241 151 185 199 192 190 121 133 148 153 154 155 151 150 155 149 145 144 147 142 133 124 119 106 95 85 76 67 65 64 61 58 55 54 53 53 51 49
216 216 125 179 204 212 221 208 197 200 189 177 162 173 171 171 167 159 157 159 161 154 146 148 152 153 146 149 144 130 112 90 76 71 66 62 60 58 57 54 52 53 51 48
231 230 239 228 238 229 226 232 207 198 187 180 182 176 176 175 169 165 164 165 163 156 155 152 158 160 152 149 145 132 117 104 94 81 74 67 62 56 52 47 49 48 48 46
249 266 263 258 243 247 234 227 204 187 193 190 182 180 176 176 174 171 168 168 170 167 165 163 164 161 158 156 153 143 134 122 111 95 86 77 68 59 60 54 51 50 50 47
246 248 245 277 169 234 227 222 218 196 194 197 190 181 178 178 177 174 172 171 172 173 168 168 165 163 166 167 166 156 144 135 124 107 95 88 87 78 66 63 57 56 53 50
256 296 238 143 176 203 216 208 207 209 209 192 194 187 184 178 178 176 174 174 175 174 170 168 169 168 170 171 173 170 153 142 129 113 100 92 86 84 98 89 72 59 53 49
226 167 198 205 220 185 193 186 186 200 198 197 189 185 184 179 172 177 176 175 173 171 169 169 169 169 169 169 167 159 146 134 131 119 111 102 89 75 73 67 51 41 37 43
203 211 232 125 167 172 177 175 184 189 182 183 184 185 182 178 177 177 171 169 167 168 168 167 165 165 164 162 158 151 146 144 137 129 124 113 93 81 68 64 59 37 24 20
175 182 185 201 192 188 195 200 210 196 188 183 184 185 185 181 175 171 168 168 167 170 170 168 165 163 161 159 156 154 151 150 146 140 139 119 103 89 73 62 46 30 25 13
163 188 198 209 207 204 210 210 214 198 191 187 185 179 176 173 169 170 172 173 172 167 167 166 163 162 163 164 161 160 159 157 155 145 137 126 111 92 69 52 30 28 23 4
192 143 171 208 205 196 191 183 182 180 182 177 163 163 165 167 175 172 165 165 162 161 166 166 169 170 171 172 170 169 164 162 167 163 153 136 113 98 81 59 28 21 2 341
152 139 133 130 163 171 171 178 175 164 161 160 162 169 171 171 156 153 154 161 163 163 171 172 173 170 169 168 167 168 168 170 169 159 155 144 126 113 99 68 35 5 351 342
127 127 126 123 114 138 148 138 145 147 157 160 160 161 162 152 151 155 161 168 175 174 171 170 171 167 166 169 167 172 174 176 176 173 173 159 156 159 136 80 28 346 344 350
125 118 119 117 105 107 129 151 151 153 158 163 167 168 163 154 153 153 152 159 167 172 167 167 167 170 170 173 171 176 176 179 182 181 175 176 174 180 186 231 307 333 339 347
133 132 134 134 128 114 127 143 147 149 156 162 160 155 149 149 150 153 159 170 170 165 163 165 168 169 171 167 173 175 176 179 178 175 175 178 192 202 207 236 287 316 335 341
133 145 142 137 135 132 135 144 151 157 162 166 165 165 164 161 162 160 165 170 166 166 166 168 169 168 169 163 168 170 172 173 175 175 173 179 187 194 210 233 274 312 320 326
142 141 127 123 132 143 151 154 153 156 162 166 168 168 163 157 158 165 166 167 167 165 167 171 172 173 164 164 164 164 163 168 168 168 174 171 182 189 197 234 261 285 303 319
131 125 129 139 158 169 158 157 149 149 154 158 162 168 170 171 168 166 161 164 165 162 165 169 174 175 163 161 160 159 161 166 170 172 176 183 188 192 213 247 259 269 285 300
141 144 147 167 181 169 166 169 168 164 163 160 161 166 167 165 155 157 159 159 160 162 161 163 168 164 160 158 156 156 158 171 175 174 176 179 189 197 226 241 257 268 281 292
124 136 146 153 161 166 170 174 171 172 174 170 162 164 161 159 157 157 157 158 160 161 159 161 162 161 159 158 158 159 156 164 172 175 178 188 194 216 234 250 261 274 285 291